Location: Azul
(36.7830°S, 59.8500°W)
Time: 01:05:47
(UTC-03:00)

ISS - Pass Details

Date: 08 November 2019
Orbit: 412 x 421 km, 51.6° (Epoch: 12 November)

Event Time Altitude Azimuth Distance (km) Brightness Sun altitude
Rises 20:24:11 0° 241° (WSW) 2,377 2.6 -8.9°
Reaches altitude 10° 20:26:32 10° 255° (WSW) 1,507 0.5 -9.3°
Maximum altitude 20:29:19 24° 311° (NW) 922 -1.8 -9.8°
Drops below altitude 10° 20:32:05 10° 6° (N) 1,494 -1.3 -10.3°
Enters shadow 20:32:48 - 12° (NNE) 1,743 -1.0 -10.4°
